Location: Moscow
(55.7500°N, 37.5830°E)
Time: 10:13:24
(UTC+03:00)

Vanguard 3 - Pass Details

Date: 02 December 2021
Orbit: 508 x 3260 km, 33.3° (Epoch: 19 January)

Event Time Altitude Azimuth Distance (km) Brightness Sun altitude
Rises 07:44:43 0° 252° (WSW) 7,118 11.5 -6.8°
Reaches altitude 10° 07:50:52 10° 243° (WSW) 5,862 11.2 -6.1°
Maximum altitude 08:03:31 26° 196° (SSW) 3,808 10.8 -4.6°
Drops below altitude 10° 08:12:34 10° 145° (SE) 4,104 12.2 -3.5°
Sets 08:15:56 0° 133° (SE) 4,707 13.7 -3.1°
